Date String (YYYY-MM-DD hh:mm:ss) UTC,Instrument flags,absolute air pressure of the measurement (hPa),sample flow rate (lpm),inlet stack bypass flow (lpm),air temperature of the measurement (°C),ambient temperature measured by the external sensor (°C),aerosol sample conditioner tube jacket temperature (°C),OPC LED temperature (°C),internal box temperature (°C),relative humidity of the measurement (%),span deviation,mass concentration of particles derived from Lorenz-Mie calculation of OPC scattering (μg/m³),mass concentration of particles derived from Lorenz-Mie calculation of OPC scattering (μg/m³),mass concentration of particles derived from Lorenz-Mie calculation of OPC scattering (μg/m³)
DateTimeUTC,F1_M11,P_M11,Q1_M11,Q2_M11,T1_M11,T2_M11,T3_M11,T4_M11,T5_M11,U1_M11,ZSPAN_M11,X0_M11,X2_M11,X1_M11
2024-01-31 07:00:00,SystemResetWarning,0833.1,5.00,000.00,024.1,022.8,000.0,032.4,025.4,11.5,0000.0,0012.23,0004.56,0003.99
2024-01-31 07:01:00,SystemResetWarning,0833.0,5.00,000.00,024.1,022.8,000.0,032.4,025.4,11.5,0000.0,0012.11,0004.58,0004.03
2024-01-31 07:02:00,SystemResetWarning,0833.3,4.99,000.00,024.0,022.7,000.0,032.4,025.4,11.5,0000.0,0011.23,0004.63,0004.10
2024-01-31 07:03:00,SystemResetWarning,0833.3,5.00,000.00,024.0,022.7,000.0,032.4,025.4,11.5,0000.0,0011.52,0004.69,0004.15
2024-01-31 07:04:00,SystemResetWarning,0833.3,4.99,000.00,024.0,022.7,000.0,032.4,025.4,11.5,0000.0,0011.76,0004.76,0004.23
2024-01-31 07:05:00,SystemResetWarning,0833.2,5.00,000.00,024.0,022.7,000.0,032.4,025.4,11.5,0000.0,0011.96,0004.83,0004.30
2024-01-31 07:06:00,SystemResetWarning,0833.0,5.00,000.00,024.0,022.7,000.0,032.4,025.4,11.5,0000.0,0012.03,0004.89,0004.34
2024-01-31 07:07:00,SystemResetWarning,0832.8,5.01,000.00,024.0,022.7,000.0,032.4,025.4,11.5,0000.0,0012.15,0004.90,0004.37
2024-01-31 07:08:00,SystemResetWarning,0832.7,5.00,000.00,024.0,022.7,000.0,032.4,025.4,11.4,0000.0,0011.89,0004.86,0004.36
2024-01-31 07:09:00,SystemResetWarning,0832.8,5.00,000.00,024.0,022.7,000.0,032.4,025.3,11.4,0000.0,0011.48,0004.83,0004.36
2024-01-31 07:10:00,SystemResetWarning,0832.8,5.00,000.00,024.0,022.7,000.0,032.4,025.4,11.3,0000.0,0010.65,0004.79,0004.35
2024-01-31 07:11:00,SystemResetWarning,0832.8,5.00,000.00,024.0,022.7,000.0,032.3,025.3,11.3,0000.0,0010.33,0004.75,0004.34
2024-01-31 07:12:00,SystemResetWarning,0832.8,5.00,000.00,024.0,022.7,000.0,032.3,025.3,11.3,0000.0,0010.23,0004.74,0004.30
2024-01-31 07:13:00,SystemResetWarning,0832.7,5.00,000.00,023.9,022.7,000.0,032.3,025.3,11.2,0000.0,0010.76,0004.68,0004.25
2024-01-31 07:14:00,SystemResetWarning,0832.8,4.99,000.00,023.9,022.7,000.0,032.3,025.3,11.2,0000.0,0010.63,0004.62,0004.19
2024-01-31 07:15:00,SystemResetWarning,0832.7,4.99,000.00,023.9,022.7,000.0,032.3,025.3,11.2,0000.0,0010.22,0004.57,0004.14
2024-01-31 07:16:00,SystemResetWarning,0832.7,4.99,000.00,023.9,022.7,000.0,032.3,025.3,11.2,0000.0,0010.15,0004.57,0004.12
2024-01-31 07:17:00,SystemResetWarning,0832.7,5.00,000.00,023.9,022.6,000.0,032.3,025.3,11.2,0000.0,0010.65,0004.57,0004.10
2024-01-31 07:18:00,SystemResetWarning,0832.7,5.00,000.00,023.9,022.6,000.0,032.3,025.3,11.2,0000.0,0010.75,0004.57,0004.10
2024-01-31 07:19:00,SystemResetWarning,0832.7,5.00,000.00,023.9,022.6,000.0,032.3,025.3,11.2,0000.0,0011.39,0004.57,0004.09
2024-01-31 07:20:00,SystemResetWarning,0832.7,5.00,000.00,023.9,022.6,000.0,032.3,025.2,11.2,0000.0,0011.76,0004.59,0004.08
2024-01-31 07:21:00,SystemResetWarning,0832.6,5.00,000.00,023.9,022.6,000.0,032.3,025.2,11.3,0000.0,0011.75,0004.62,0004.08
2024-01-31 07:22:00,SystemResetWarning,0832.7,5.00,000.00,023.9,022.6,000.0,032.3,025.2,11.3,0000.0,0012.25,0004.64,0004.08
2024-01-31 07:23:00,SystemResetWarning,0832.6,5.00,000.00,023.9,022.6,000.0,032.2,025.2,11.3,0000.0,0012.50,0004.61,0004.07
2024-01-31 07:24:00,SystemResetWarning,0832.6,5.00,000.00,023.9,022.6,000.0,032.2,025.2,11.3,0000.1,0012.00,0004.57,0004.08
2024-01-31 07:25:00,SystemResetWarning,0832.7,5.01,000.00,023.8,022.6,000.0,032.2,025.2,11.3,0000.0,0012.12,0004.58,0004.09
2024-01-31 07:26:00,SystemResetWarning,0832.6,5.00,000.00,023.9,022.6,000.0,032.2,025.2,11.3,0000.0,0012.20,0004.59,0004.09
2024-01-31 07:27:00,SystemResetWarning,0832.6,5.00,000.00,023.8,022.6,000.0,032.2,025.2,11.3,0000.0,0012.29,0004.58,0004.09
2024-01-31 07:28:00,SystemResetWarning,0832.6,5.00,000.00,023.8,022.6,000.0,032.2,025.2,11.3,0000.0,0011.72,0004.55,0004.08
2024-01-31 07:29:00,SystemResetWarning,0832.5,5.00,000.00,023.8,022.6,000.0,032.2,025.2,11.3,0000.0,0011.73,0004.55,0004.06
2024-01-31 07:30:00,SystemResetWarning,0832.5,5.00,000.00,023.8,022.6,000.0,032.2,025.2,11.3,0000.0,0011.03,0004.53,0004.05
2024-01-31 07:31:00,SystemResetWarning,0832.5,5.00,000.00,023.8,022.6,000.0,032.2,025.2,11.3,0000.0,0010.63,0004.52,0004.04
2024-01-31 07:32:00,SystemResetWarning,0832.5,5.00,000.00,023.8,022.6,000.0,032.2,025.2,11.3,0000.0,0009.83,0004.51,0004.03
2024-01-31 07:33:00,SystemResetWarning,0832.6,5.00,000.00,023.8,022.5,000.0,032.2,025.2,11.3,0000.0,0009.52,0004.55,0004.01
2024-01-31 07:34:00,SystemResetWarning,0832.5,5.00,000.00,023.8,022.5,000.0,032.2,025.1,11.3,0000.0,0009.09,0004.54,0004.00
2024-01-31 07:35:00,SystemResetWarning,0832.5,5.00,000.00,023.8,022.5,000.0,032.2,025.1,11.2,0000.0,0008.93,0004.55,0003.99
2024-01-31 07:36:00,SystemResetWarning,0832.5,5.00,000.00,023.7,022.5,000.0,032.2,025.1,11.2,0000.0,0008.55,0004.52,0003.98
2024-01-31 07:37:00,SystemResetWarning,0832.5,5.01,000.00,023.7,022.5,000.0,032.2,025.1,11.2,0000.0,0008.60,0004.47,0003.95
2024-01-31 07:38:00,SystemResetWarning,0832.4,5.00,000.00,023.7,022.5,000.0,032.1,025.1,11.2,0000.0,0008.43,0004.44,0003.93
2024-01-31 07:39:00,SystemResetWarning,0832.4,5.01,000.00,023.7,022.5,000.0,032.1,025.1,11.2,0000.0,0008.84,0004.44,0003.91
2024-01-31 07:40:00,SystemResetWarning,0832.4,5.01,000.00,023.7,022.5,000.0,032.1,025.1,11.2,0000.0,0008.77,0004.41,0003.89
2024-01-31 07:41:00,SystemResetWarning,0832.3,5.00,000.00,023.7,022.5,000.0,032.1,025.1,11.1,0000.0,0008.59,0004.38,0003.88
2024-01-31 07:42:00,SystemResetWarning,0832.3,4.99,000.00,023.7,022.4,000.0,032.1,025.1,11.0,0000.0,0010.01,0004.35,0003.84
2024-01-31 07:43:00,SystemResetWarning,0832.3,5.00,000.00,023.7,022.4,000.0,032.1,025.1,10.9,0000.0,0010.31,0004.36,0003.84
2024-01-31 07:44:00,SystemResetWarning,0832.3,5.00,000.00,023.7,022.4,000.0,032.1,025.0,10.7,0000.0,0010.98,0004.33,0003.82
2024-01-31 07:45:00,SystemResetWarning,0832.3,5.00,000.00,023.7,022.4,000.0,032.1,025.0,10.8,-000.2,0011.02,0004.34,0003.83
2024-01-31 07:46:00,SystemResetWarning,0832.3,5.00,000.00,023.7,022.4,000.0,032.1,025.0,10.6,-000.9,0011.47,0004.35,0003.83
2024-01-31 07:47:00,SystemResetWarning,0832.2,5.00,000.00,023.7,022.4,000.0,032.1,025.0,10.5,-000.3,0012.01,0004.37,0003.83
2024-01-31 07:48:00,SystemResetWarning,0832.2,5.00,000.00,023.7,022.4,000.0,032.0,025.0,10.6,0000.1,0012.64,0004.42,0003.85
2024-01-31 07:49:00,SystemResetWarning,0832.2,5.01,000.00,023.7,022.4,000.0,032.0,025.0,10.6,0000.0,0013.05,0004.45,0003.85
2024-01-31 07:50:00,SystemResetWarning,0832.2,5.01,000.00,023.6,022.4,000.0,032.0,025.0,10.4,0000.0,0013.11,0004.46,0003.86
2024-01-31 07:51:00,SystemResetWarning,0832.2,5.00,000.00,023.6,022.3,000.0,032.0,025.0,10.2,0000.0,0013.01,0004.49,0003.88
2024-01-31 07:52:00,SystemResetWarning,0832.2,5.00,000.00,023.6,022.3,000.0,032.0,025.0,10.1,0000.0,0012.96,0004.49,0003.89
2024-01-31 07:53:00,SystemResetWarning,0832.2,5.00,000.00,023.6,022.3,000.0,032.0,025.0,10.0,0000.0,0011.67,0004.51,0003.91
2024-01-31 07:54:00,SystemResetWarning,0832.2,4.99,000.00,023.6,022.3,000.0,032.0,025.0,09.8,0000.0,0011.87,0004.51,0003.92
2024-01-31 07:55:00,SystemResetWarning,0832.2,4.99,000.00,023.6,022.3,000.0,032.0,024.9,09.9,0000.0,0011.25,0004.51,0003.91
2024-01-31 07:56:00,SystemResetWarning,0832.2,5.01,000.00,023.6,022.3,000.0,032.0,024.9,09.8,0000.0,0012.05,0004.46,0003.90
2024-01-31 07:57:00,SystemResetWarning,0832.2,5.01,000.00,023.6,022.3,000.0,032.0,024.9,10.0,0000.0,0011.71,0004.46,0003.89
2024-01-31 07:58:00,SystemResetWarning,0832.2,5.00,000.00,023.6,022.3,000.0,032.0,024.9,10.0,0000.0,0011.28,0004.47,0003.90
2024-01-31 07:59:00,SystemResetWarning,0832.1,5.00,000.00,023.6,022.3,000.0,032.0,024.9,09.9,0000.0,0010.28,0004.43,0003.88
